West Palm Beach, FL

3:02 PM EDT on July 26, 2017 (GMT -0400)
Palm Beach International

Weather History for KPBI - July, 2013

Change the Weather History Date:

Thursday, July 4, 2013

  Actual Average Record
Temperature  
Mean Temperature 85 °F 82 °F  
Max Temperature 89 °F 89 °F 94 °F (1963)
Min Temperature 80 °F 75 °F 68 °F (1936)
Degree Days  
Heating Degree Days 0 0  
Month to date heating degree days 0 0  
Since 1 June heating degree days 0 0  
Since 1 July heating degree days 0 0  
Cooling Degree Days 20 17  
Month to date cooling degree days 76 68  
Year to date cooling degree days 1750 1667  
Since 1 June cooling degree days 565 558  
Growing Degree Days 35 (Base 50)    
Moisture  
Dew Point 73 °F    
Average Humidity 67    
Maximum Humidity 74    
Minimum Humidity 59    
Precipitation  
Precipitation 0.16 in 0.21 in 3.35 in (1920)
Month to date precipitation 0.67 0.88  
Year to date precipitation 38.35 27.89  
Snow  
Snow 0.00 in - - ()
Month to date snowfall 0.0  
Since 1 June snowfall 0.0  
Since 1 July snowfall 0.0  
Snow Depth 0.00 in    
Sea Level Pressure  
Sea Level Pressure 30.12 in    
Wind  
Wind Speed 15 mph (SE)    
Max Wind Speed 25 mph    
Max Gust Speed 32 mph    
Visibility 10 miles    
Events Rain , Thunderstorm    
T = Trace of Precipitation, MM = Missing Value Source: NWS Daily Summary

Daily Weather History Graph

Daily Weather History Graph

Search for Another Location

Airport or City:

Trip Planner

Search our weather history database for the weather conditions in past years. The results will help you decide how hot, cold, wet, or windy it might be!

Date:

Astronomy

Jul. 04, 2013 Rise Set
Actual Time 6:31 AM EDT 8:17 PM EDT
Civil Twilight 6:05 AM EDT 8:43 PM EDT
Nautical Twilight 5:34 AM EDT 9:15 PM EDT
Astronomical Twilight 5:01 AM EDT 9:48 PM EDT
Moon 3:40 AM EDT (7/4) 5:26 PM EDT (7/4)
Length of Visible Light 14h 38m
Length of Day
13h 46m
Waning Crescent, 11% of the Moon is Illuminated
Jul 4
Waning Crescent
Jul 8
New
Jul 15
First Quarter
Jul 22
Full
Jul 29
Last Quarter

Hourly Weather History & Observations

Time (EDT) Temp. Heat Index Dew Point Humidity Pressure Visibility Wind Dir Wind Speed Gust Speed Precip Events Conditions
12:53 AM 82.9 °F 88.0 °F 72.0 °F 69% 30.12 in 10.0 mi SE 13.8 mph - 0.00 in   Mostly Cloudy
1:53 AM 82.9 °F 87.5 °F 71.1 °F 67% 30.11 in 10.0 mi SE 11.5 mph - N/A   Scattered Clouds
2:53 AM 82.9 °F 88.0 °F 72.0 °F 69% 30.09 in 10.0 mi SE 10.4 mph - N/A   Scattered Clouds
3:53 AM 82.9 °F 88.0 °F 72.0 °F 69% 30.08 in 10.0 mi ESE 15.0 mph 20.7 mph N/A   Mostly Cloudy
4:53 AM 82.9 °F 88.8 °F 73.0 °F 72% 30.08 in 10.0 mi SE 10.4 mph - N/A   Mostly Cloudy
5:53 AM 82.9 °F 88.0 °F 72.0 °F 69% 30.08 in 10.0 mi ESE 15.0 mph 21.9 mph N/A   Mostly Cloudy
6:53 AM 82.9 °F 88.0 °F 72.0 °F 69% 30.09 in 10.0 mi ESE 16.1 mph - N/A   Mostly Cloudy
7:53 AM 84.0 °F 89.0 °F 71.1 °F 65% 30.11 in 10.0 mi ESE 17.3 mph - N/A   Mostly Cloudy
8:53 AM 86.0 °F 92.2 °F 72.0 °F 63% 30.12 in 10.0 mi SE 17.3 mph - N/A   Mostly Cloudy
9:53 AM 87.1 °F 93.6 °F 72.0 °F 61% 30.13 in 10.0 mi ESE 18.4 mph - N/A   Mostly Cloudy
10:53 AM 88.0 °F 94.7 °F 72.0 °F 59% 30.14 in 10.0 mi ESE 20.7 mph 25.3 mph N/A   Mostly Cloudy
11:53 AM 89.1 °F 97.0 °F 73.0 °F 59% 30.14 in 10.0 mi SE 19.6 mph - N/A   Mostly Cloudy
12:53 PM 89.1 °F 97.0 °F 73.0 °F 59% 30.14 in 10.0 mi SE 18.4 mph - N/A   Mostly Cloudy
1:10 PM 87.8 °F 95.6 °F 73.4 °F 62% 30.14 in 2.0 mi ESE 24.2 mph 29.9 mph 0.00 in Rain Heavy Rain
1:22 PM 82.4 °F 88.2 °F 73.4 °F 74% 30.14 in 4.0 mi SE 13.8 mph - 0.09 in Rain Light Rain
1:53 PM 87.1 °F 98.8 °F 77.0 °F 72% 30.13 in 10.0 mi SE 16.1 mph 19.6 mph 0.13 in   Mostly Cloudy
2:53 PM 89.1 °F 98.0 °F 73.9 °F 61% 30.11 in 10.0 mi SE 16.1 mph 26.5 mph N/A   Mostly Cloudy
3:19 PM 86.0 °F 91.8 °F 71.6 °F 62% 30.12 in 10.0 mi SE 24.2 mph 32.2 mph N/A Thunderstorm Thunderstorm
3:53 PM 81.0 °F 85.8 °F 73.0 °F 77% 30.11 in 10.0 mi SE 6.9 mph - 0.01 in Thunderstorm Thunderstorm
4:06 PM 84.2 °F 92.3 °F 75.2 °F 74% 30.10 in 10.0 mi SSE 6.9 mph - N/A   Mostly Cloudy
4:53 PM 88.0 °F 96.5 °F 73.9 °F 63% 30.09 in 10.0 mi ESE 21.9 mph - N/A   Mostly Cloudy
5:53 PM 86.0 °F 95.1 °F 75.0 °F 70% 30.09 in 10.0 mi ESE 15.0 mph - 0.02 in   Mostly Cloudy
6:53 PM 84.9 °F 91.4 °F 73.0 °F 67% 30.09 in 10.0 mi ESE 10.4 mph - N/A   Mostly Cloudy
7:53 PM 84.9 °F 90.7 °F 72.0 °F 65% 30.11 in 10.0 mi ESE 13.8 mph - N/A   Mostly Cloudy
8:53 PM 84.0 °F 90.2 °F 73.0 °F 69% 30.12 in 10.0 mi SE 12.7 mph - N/A   Mostly Cloudy
9:53 PM 84.0 °F 90.2 °F 73.0 °F 69% 30.15 in 10.0 mi SE 10.4 mph - N/A   Mostly Cloudy
10:53 PM 84.0 °F 89.6 °F 72.0 °F 67% 30.16 in 10.0 mi ESE 11.5 mph - N/A   Mostly Cloudy
11:53 PM 84.0 °F 89.6 °F 72.0 °F 67% 30.15 in 10.0 mi ESE 9.2 mph - N/A   Mostly Cloudy